Time,TemperatureF,DewpointF,PressureIn,WindDirection,WindDirectionDegrees,WindSpeedMPH,WindSpeedGustMPH,Humidity,HourlyPrecipIn,Conditions,Clouds,dailyrainin,SolarRadiationWatts/m^2,SoftwareType,DateUTC
2013-11-04 00:01:00,61.7,54.0,29.85,SSE,157,1.0,5.0,76,0.00,,,0.00,0,HR-IXP-WINDi_r2_v1.2,2013-11-04 08:01:00,
2013-11-04 00:06:00,61.7,54.0,29.85,South,172,1.0,4.0,76,0.00,,,0.00,0,HR-IXP-WINDi_r2_v1.2,2013-11-04 08:06:00,
2013-11-04 00:11:00,61.7,54.0,29.86,South,172,1.0,3.0,76,0.00,,,0.00,0,HR-IXP-WINDi_r2_v1.2,2013-11-04 08:11:00,
2013-11-04 00:17:00,61.7,54.0,29.86,South,170,1.0,2.0,76,0.00,,,0.00,0,HR-IXP-WINDi_r2_v1.2,2013-11-04 08:17:00,
2013-11-04 00:22:00,61.7,54.0,29.85,SE,136,0.0,6.0,76,0.00,,,0.00,0,HR-IXP-WINDi_r2_v1.2,2013-11-04 08:22:00,
2013-11-04 00:27:00,61.7,54.0,29.85,SSE,159,0.0,6.0,76,0.00,,,0.00,0,HR-IXP-WINDi_r2_v1.2,2013-11-04 08:27:00,
2013-11-04 00:32:00,61.7,54.0,29.85,South,184,0.0,5.0,76,0.00,,,0.00,0,HR-IXP-WINDi_r2_v1.2,2013-11-04 08:32:00,
2013-11-04 00:37:00,61.6,53.9,29.85,South,173,1.0,3.0,76,0.00,,,0.00,0,HR-IXP-WINDi_r2_v1.2,2013-11-04 08:37:00,
2013-11-04 00:42:00,61.7,54.0,29.85,South,175,0.0,4.0,76,0.00,,,0.00,0,HR-IXP-WINDi_r2_v1.2,2013-11-04 08:42:00,
2013-11-04 00:47:00,61.7,54.0,29.85,South,175,0.0,4.0,76,0.00,,,0.00,0,HR-IXP-WINDi_r2_v1.2,2013-11-04 08:47:00,
2013-11-04 00:53:00,61.7,54.0,29.85,South,175,0.0,2.0,76,0.00,,,0.00,0,HR-IXP-WINDi_r2_v1.2,2013-11-04 08:53:00,
2013-11-04 00:58:00,61.7,54.0,29.85,SE,128,0.0,2.0,76,0.00,,,0.00,0,HR-IXP-WINDi_r2_v1.2,2013-11-04 08:58:00,
2013-11-04 01:03:00,61.7,54.0,29.85,SE,128,0.0,2.0,76,0.00,,,0.00,0,HR-IXP-WINDi_r2_v1.2,2013-11-04 09:03:00,
2013-11-04 01:08:00,61.7,54.0,29.85,SE,128,0.0,1.0,76,0.00,,,0.00,0,HR-IXP-WINDi_r2_v1.2,2013-11-04 09:08:00,
2013-11-04 01:13:00,61.6,53.9,29.85,SSE,147,0.0,2.0,76,0.00,,,0.00,0,HR-IXP-WINDi_r2_v1.2,2013-11-04 09:13:00,
2013-11-04 01:19:00,61.6,53.5,29.85,SSE,147,1.0,3.0,75,0.00,,,0.00,0,HR-IXP-WINDi_r2_v1.2,2013-11-04 09:19:00,
2013-11-04 01:25:00,61.6,53.5,29.84,SSE,148,1.0,3.0,75,0.00,,,0.00,0,HR-IXP-WINDi_r2_v1.2,2013-11-04 09:25:00,
2013-11-04 01:30:00,61.6,53.5,29.84,SE,145,1.0,5.0,75,0.00,,,0.00,0,HR-IXP-WINDi_r2_v1.2,2013-11-04 09:30:00,
2013-11-04 01:35:00,61.6,53.5,29.83,SSE,150,1.0,5.0,75,0.00,,,0.00,0,HR-IXP-WINDi_r2_v1.2,2013-11-04 09:35:00,
2013-11-04 01:41:00,61.6,53.5,29.82,SSE,157,3.0,6.0,75,0.00,,,0.00,0,HR-IXP-WINDi_r2_v1.2,2013-11-04 09:41:00,
2013-11-04 01:46:00,61.6,53.5,29.82,SE,146,1.0,6.0,75,0.00,,,0.00,0,HR-IXP-WINDi_r2_v1.2,2013-11-04 09:46:00,
2013-11-04 01:51:00,61.6,53.5,29.82,South,182,0.0,6.0,75,0.00,,,0.00,0,HR-IXP-WINDi_r2_v1.2,2013-11-04 09:51:00,
2013-11-04 01:56:00,61.5,53.4,29.82,South,182,1.0,6.0,75,0.00,,,0.00,0,HR-IXP-WINDi_r2_v1.2,2013-11-04 09:56:00,
2013-11-04 02:01:00,61.4,53.3,29.82,South,182,0.0,2.0,75,0.00,,,0.00,0,HR-IXP-WINDi_r2_v1.2,2013-11-04 10:01:00,
2013-11-04 02:07:00,61.4,53.7,29.82,South,182,0.0,2.0,76,0.00,,,0.00,0,HR-IXP-WINDi_r2_v1.2,2013-11-04 10:07:00,
2013-11-04 02:12:00,61.3,53.6,29.82,South,182,0.0,1.0,76,0.00,,,0.00,0,HR-IXP-WINDi_r2_v1.2,2013-11-04 10:12:00,
2013-11-04 02:17:00,61.3,53.6,29.82,South,182,0.0,1.0,76,0.00,,,0.00,0,HR-IXP-WINDi_r2_v1.2,2013-11-04 10:17:00,
2013-11-04 02:23:00,61.2,53.5,29.82,South,182,0.0,2.0,76,0.00,,,0.00,0,HR-IXP-WINDi_r2_v1.2,2013-11-04 10:23:00,
2013-11-04 02:28:00,61.2,53.5,29.82,South,182,0.0,2.0,76,0.00,,,0.00,0,HR-IXP-WINDi_r2_v1.2,2013-11-04 10:28:00,
2013-11-04 02:33:00,61.2,53.5,29.83,South,182,0.0,0.0,76,0.00,,,0.00,0,HR-IXP-WINDi_r2_v1.2,2013-11-04 10:33:00,
2013-11-04 02:38:00,61.1,53.4,29.83,South,182,0.0,2.0,76,0.00,,,0.00,0,HR-IXP-WINDi_r2_v1.2,2013-11-04 10:38:00,
2013-11-04 02:43:00,61.0,53.7,29.82,South,182,0.0,2.0,77,0.00,,,0.00,0,HR-IXP-WINDi_r2_v1.2,2013-11-04 10:43:00,
2013-11-04 02:48:00,61.0,53.7,29.82,South,182,0.0,1.0,77,0.00,,,0.00,0,HR-IXP-WINDi_r2_v1.2,2013-11-04 10:48:00,
2013-11-04 02:53:00,60.9,53.6,29.83,South,182,0.0,0.0,77,0.00,,,0.00,0,HR-IXP-WINDi_r2_v1.2,2013-11-04 10:53:00,
2013-11-04 02:59:00,60.9,53.6,29.82,South,182,1.0,2.0,77,0.00,,,0.00,0,HR-IXP-WINDi_r2_v1.2,2013-11-04 10:59:00,
2013-11-04 03:05:00,60.9,53.6,29.82,South,182,0.0,2.0,77,0.00,,,0.00,0,HR-IXP-WINDi_r2_v1.2,2013-11-04 11:05:00,
2013-11-04 03:10:00,60.9,53.6,29.82,South,182,0.0,1.0,77,0.00,,,0.00,0,HR-IXP-WINDi_r2_v1.2,2013-11-04 11:10:00,
2013-11-04 03:16:00,60.9,53.6,29.82,South,182,0.0,1.0,77,0.00,,,0.00,0,HR-IXP-WINDi_r2_v1.2,2013-11-04 11:16:00,
2013-11-04 03:21:00,60.9,53.9,29.82,South,182,0.0,1.0,78,0.00,,,0.00,0,HR-IXP-WINDi_r2_v1.2,2013-11-04 11:21:00,
2013-11-04 03:26:00,60.9,53.9,29.82,South,182,0.0,1.0,78,0.00,,,0.00,0,HR-IXP-WINDi_r2_v1.2,2013-11-04 11:26:00,
2013-11-04 03:31:00,60.9,53.9,29.82,South,182,0.0,0.0,78,0.00,,,0.00,0,HR-IXP-WINDi_r2_v1.2,2013-11-04 11:31:00,
2013-11-04 03:36:00,60.8,53.8,29.83,South,182,0.0,0.0,78,0.00,,,0.00,0,HR-IXP-WINDi_r2_v1.2,2013-11-04 11:36:00,
2013-11-04 03:41:00,60.8,53.8,29.82,South,182,0.0,2.0,78,0.00,,,0.00,0,HR-IXP-WINDi_r2_v1.2,2013-11-04 11:41:00,
2013-11-04 03:47:00,60.8,53.8,29.82,South,182,0.0,2.0,78,0.00,,,0.00,0,HR-IXP-WINDi_r2_v1.2,2013-11-04 11:47:00,
2013-11-04 03:52:00,60.8,53.8,29.82,South,182,1.0,2.0,78,0.00,,,0.00,0,HR-IXP-WINDi_r2_v1.2,2013-11-04 11:52:00,
2013-11-04 03:57:00,60.8,53.8,29.82,South,173,1.0,2.0,78,0.00,,,0.00,0,HR-IXP-WINDi_r2_v1.2,2013-11-04 11:57:00,
2013-11-04 04:02:00,60.7,53.7,29.82,South,173,0.0,2.0,78,0.00,,,0.00,0,HR-IXP-WINDi_r2_v1.2,2013-11-04 12:02:00,
2013-11-04 04:07:00,60.7,53.7,29.82,South,173,0.0,2.0,78,0.00,,,0.00,0,HR-IXP-WINDi_r2_v1.2,2013-11-04 12:07:00,
2013-11-04 04:13:00,60.7,53.7,29.82,South,173,0.0,0.0,78,0.00,,,0.00,0,HR-IXP-WINDi_r2_v1.2,2013-11-04 12:13:00,
2013-11-04 04:19:00,60.6,53.6,29.82,South,173,0.0,0.0,78,0.00,,,0.00,0,HR-IXP-WINDi_r2_v1.2,2013-11-04 12:19:00,
2013-11-04 04:24:00,60.6,53.6,29.83,South,173,0.0,0.0,78,0.00,,,0.00,0,HR-IXP-WINDi_r2_v1.2,2013-11-04 12:24:00,
2013-11-04 04:29:00,60.6,53.6,29.83,South,173,0.0,0.0,78,0.00,,,0.00,0,HR-IXP-WINDi_r2_v1.2,2013-11-04 12:29:00,
2013-11-04 04:34:00,60.6,53.6,29.82,South,173,0.0,0.0,78,0.00,,,0.00,0,HR-IXP-WINDi_r2_v1.2,2013-11-04 12:34:00,
2013-11-04 04:39:00,60.5,53.5,29.83,South,173,0.0,0.0,78,0.00,,,0.00,0,HR-IXP-WINDi_r2_v1.2,2013-11-04 12:39:00,
2013-11-04 04:44:00,60.5,53.5,29.83,South,173,0.0,0.0,78,0.00,,,0.00,0,HR-IXP-WINDi_r2_v1.2,2013-11-04 12:44:00,
2013-11-04 04:50:00,60.5,53.5,29.83,South,173,0.0,1.0,78,0.00,,,0.00,0,HR-IXP-WINDi_r2_v1.2,2013-11-04 12:50:00,
2013-11-04 04:55:00,60.4,53.4,29.83,South,173,0.0,1.0,78,0.00,,,0.00,0,HR-IXP-WINDi_r2_v1.2,2013-11-04 12:55:00,
2013-11-04 05:00:00,60.5,53.5,29.83,South,173,0.0,1.0,78,0.00,,,0.00,0,HR-IXP-WINDi_r2_v1.2,2013-11-04 13:00:00,
2013-11-04 05:06:00,60.5,53.5,29.83,South,173,0.0,1.0,78,0.00,,,0.00,0,HR-IXP-WINDi_r2_v1.2,2013-11-04 13:06:00,
2013-11-04 05:11:00,60.5,53.5,29.83,South,173,0.0,1.0,78,0.00,,,0.00,0,HR-IXP-WINDi_r2_v1.2,2013-11-04 13:11:00,
2013-11-04 05:16:00,60.5,53.5,29.82,South,173,0.0,2.0,78,0.00,,,0.00,0,HR-IXP-WINDi_r2_v1.2,2013-11-04 13:16:00,
2013-11-04 05:21:00,60.5,53.5,29.82,SE,143,1.0,4.0,78,0.00,,,0.00,0,HR-IXP-WINDi_r2_v1.2,2013-11-04 13:21:00,
2013-11-04 05:26:00,60.5,53.5,29.82,ESE,119,2.0,4.0,78,0.00,,,0.00,0,HR-IXP-WINDi_r2_v1.2,2013-11-04 13:26:00,
2013-11-04 05:32:00,60.5,53.2,29.82,East,95,1.0,4.0,77,0.00,,,0.00,0,HR-IXP-WINDi_r2_v1.2,2013-11-04 13:32:00,
2013-11-04 05:37:00,60.5,53.2,29.82,East,93,2.0,4.0,77,0.00,,,0.00,0,HR-IXP-WINDi_r2_v1.2,2013-11-04 13:37:00,
2013-11-04 05:42:00,60.5,53.2,29.83,East,86,1.0,3.0,77,0.00,,,0.00,0,HR-IXP-WINDi_r2_v1.2,2013-11-04 13:42:00,
2013-11-04 05:47:00,60.5,53.2,29.83,East,82,2.0,3.0,77,0.00,,,0.00,0,HR-IXP-WINDi_r2_v1.2,2013-11-04 13:47:00,
2013-11-04 05:52:00,60.4,52.7,29.83,East,81,1.0,3.0,76,0.00,,,0.00,0,HR-IXP-WINDi_r2_v1.2,2013-11-04 13:52:00,
2013-11-04 05:58:00,60.3,52.6,29.83,East,80,1.0,3.0,76,0.00,,,0.00,0,HR-IXP-WINDi_r2_v1.2,2013-11-04 13:58:00,
2013-11-04 06:03:00,60.3,52.6,29.83,East,80,0.0,3.0,76,0.00,,,0.00,0,HR-IXP-WINDi_r2_v1.2,2013-11-04 14:03:00,
2013-11-04 06:08:00,60.2,52.5,29.83,East,80,0.0,2.0,76,0.00,,,0.00,0,HR-IXP-WINDi_r2_v1.2,2013-11-04 14:08:00,
2013-11-04 06:13:00,60.2,52.5,29.83,East,80,0.0,2.0,76,0.00,,,0.00,0,HR-IXP-WINDi_r2_v1.2,2013-11-04 14:13:00,
2013-11-04 06:19:00,60.1,52.4,29.83,East,80,1.0,3.0,76,0.00,,,0.00,0,HR-IXP-WINDi_r2_v1.2,2013-11-04 14:19:00,
2013-11-04 06:24:00,60.0,52.4,29.83,East,80,0.0,3.0,76,0.00,,,0.00,5,HR-IXP-WINDi_r2_v1.2,2013-11-04 14:24:00,
2013-11-04 06:30:00,59.9,52.6,29.83,East,80,0.0,2.0,77,0.00,,,0.00,12,HR-IXP-WINDi_r2_v1.2,2013-11-04 14:30:00,
2013-11-04 06:35:00,59.9,52.6,29.84,East,80,0.0,2.0,77,0.00,,,0.00,14,HR-IXP-WINDi_r2_v1.2,2013-11-04 14:35:00,
2013-11-04 06:40:00,59.8,52.5,29.84,East,80,0.0,2.0,77,0.00,,,0.00,19,HR-IXP-WINDi_r2_v1.2,2013-11-04 14:40:00,
2013-11-04 06:45:00,59.8,52.5,29.84,East,80,1.0,1.0,77,0.00,,,0.00,23,HR-IXP-WINDi_r2_v1.2,2013-11-04 14:45:00,
2013-11-04 06:50:00,59.8,52.5,29.84,East,80,0.0,1.0,77,0.00,,,0.00,23,HR-IXP-WINDi_r2_v1.2,2013-11-04 14:50:00,
2013-11-04 06:55:00,59.7,52.4,29.85,East,80,0.0,1.0,77,0.00,,,0.00,18,HR-IXP-WINDi_r2_v1.2,2013-11-04 14:55:00,
2013-11-04 07:01:00,59.7,52.4,29.85,SE,142,0.0,0.0,77,0.00,,,0.00,39,HR-IXP-WINDi_r2_v1.2,2013-11-04 15:01:00,
2013-11-04 07:06:00,59.7,52.4,29.85,SE,142,1.0,1.0,77,0.00,,,0.00,44,HR-IXP-WINDi_r2_v1.2,2013-11-04 15:06:00,
2013-11-04 07:11:00,59.8,52.5,29.85,SE,142,0.0,1.0,77,0.00,,,0.00,62,HR-IXP-WINDi_r2_v1.2,2013-11-04 15:11:00,
2013-11-04 07:16:00,59.9,53.0,29.86,SE,142,0.0,1.0,78,0.00,,,0.00,47,HR-IXP-WINDi_r2_v1.2,2013-11-04 15:16:00,
2013-11-04 07:22:00,60.1,53.2,29.85,SE,142,0.0,1.0,78,0.00,,,0.00,53,HR-IXP-WINDi_r2_v1.2,2013-11-04 15:22:00,
2013-11-04 07:27:00,60.2,52.9,29.86,SE,142,0.0,1.0,77,0.00,,,0.00,53,HR-IXP-WINDi_r2_v1.2,2013-11-04 15:27:00,
2013-11-04 07:32:00,60.4,53.1,29.86,SE,142,1.0,2.0,77,0.00,,,0.00,83,HR-IXP-WINDi_r2_v1.2,2013-11-04 15:32:00,
2013-11-04 07:37:00,60.6,53.3,29.86,SE,142,1.0,2.0,77,0.00,,,0.00,91,HR-IXP-WINDi_r2_v1.2,2013-11-04 15:37:00,
2013-11-04 07:43:00,60.7,53.4,29.86,SE,142,1.0,2.0,77,0.00,,,0.00,88,HR-IXP-WINDi_r2_v1.2,2013-11-04 15:43:00,
2013-11-04 07:48:00,60.9,53.2,29.87,SE,142,0.0,2.0,76,0.00,,,0.00,86,HR-IXP-WINDi_r2_v1.2,2013-11-04 15:48:00,
2013-11-04 07:53:00,61.1,53.4,29.87,SE,142,0.0,2.0,76,0.00,,,0.00,93,HR-IXP-WINDi_r2_v1.2,2013-11-04 15:53:00,
2013-11-04 07:58:00,61.2,53.5,29.87,SE,142,0.0,2.0,76,0.00,,,0.00,98,HR-IXP-WINDi_r2_v1.2,2013-11-04 15:58:00,
2013-11-04 08:04:00,61.4,53.3,29.88,SE,142,1.0,2.0,75,0.00,,,0.00,107,HR-IXP-WINDi_r2_v1.2,2013-11-04 16:04:00,
2013-11-04 08:09:00,61.7,53.3,29.88,SE,142,0.0,3.0,74,0.00,,,0.00,118,HR-IXP-WINDi_r2_v1.2,2013-11-04 16:09:00,
2013-11-04 08:15:00,62.2,53.7,29.88,SE,142,0.0,3.0,74,0.00,,,0.00,132,HR-IXP-WINDi_r2_v1.2,2013-11-04 16:15:00,
2013-11-04 08:20:00,62.7,53.9,29.88,SE,142,1.0,3.0,73,0.00,,,0.00,142,HR-IXP-WINDi_r2_v1.2,2013-11-04 16:20:00,
2013-11-04 08:25:00,63.2,54.3,29.88,SE,142,0.0,1.0,73,0.00,,,0.00,142,HR-IXP-WINDi_r2_v1.2,2013-11-04 16:25:00,
2013-11-04 08:30:00,63.1,53.9,29.88,SE,142,0.0,1.0,72,0.00,,,0.00,134,HR-IXP-WINDi_r2_v1.2,2013-11-04 16:30:00,
2013-11-04 08:36:00,63.0,53.8,29.88,SE,142,0.0,1.0,72,0.00,,,0.00,146,HR-IXP-WINDi_r2_v1.2,2013-11-04 16:36:00,
2013-11-04 08:41:00,63.3,54.4,29.88,SE,142,0.0,2.0,73,0.00,,,0.00,149,HR-IXP-WINDi_r2_v1.2,2013-11-04 16:41:00,
2013-11-04 08:46:00,63.6,54.3,29.88,SE,142,0.0,2.0,72,0.00,,,0.00,163,HR-IXP-WINDi_r2_v1.2,2013-11-04 16:46:00,
2013-11-04 08:51:00,63.9,54.3,29.88,SE,142,0.0,1.0,71,0.00,,,0.00,188,HR-IXP-WINDi_r2_v1.2,2013-11-04 16:51:00,
2013-11-04 08:56:00,64.2,54.5,29.88,SE,142,0.0,1.0,71,0.00,,,0.00,220,HR-IXP-WINDi_r2_v1.2,2013-11-04 16:56:00,
2013-11-04 09:02:00,64.5,54.8,29.89,SE,142,1.0,1.0,71,0.00,,,0.00,236,HR-IXP-WINDi_r2_v1.2,2013-11-04 17:02:00,
2013-11-04 09:07:00,64.5,54.0,29.89,SE,142,0.0,2.0,69,0.00,,,0.00,223,HR-IXP-WINDi_r2_v1.2,2013-11-04 17:07:00,
2013-11-04 09:12:00,64.8,54.7,29.89,SE,142,0.0,2.0,70,0.00,,,0.00,209,HR-IXP-WINDi_r2_v1.2,2013-11-04 17:12:00,
2013-11-04 09:18:00,65.2,54.7,29.89,SE,142,1.0,2.0,69,0.00,,,0.00,221,HR-IXP-WINDi_r2_v1.2,2013-11-04 17:18:00,
2013-11-04 09:23:00,65.5,54.6,29.89,SE,142,0.0,2.0,68,0.00,,,0.00,227,HR-IXP-WINDi_r2_v1.2,2013-11-04 17:23:00,
2013-11-04 09:28:00,65.3,54.0,29.89,WSW,257,4.0,4.0,67,0.00,,,0.00,220,HR-IXP-WINDi_r2_v1.2,2013-11-04 17:28:00,
2013-11-04 09:33:00,64.6,53.3,29.89,WSW,256,0.0,4.0,67,0.00,,,0.00,211,HR-IXP-WINDi_r2_v1.2,2013-11-04 17:33:00,
2013-11-04 09:39:00,64.3,53.5,29.90,WSW,258,0.0,4.0,68,0.00,,,0.00,188,HR-IXP-WINDi_r2_v1.2,2013-11-04 17:39:00,
2013-11-04 09:44:00,64.6,54.1,29.90,WSW,258,0.0,2.0,69,0.00,,,0.00,195,HR-IXP-WINDi_r2_v1.2,2013-11-04 17:44:00,
2013-11-04 09:49:00,64.7,54.2,29.90,SW,228,0.0,3.0,69,0.00,,,0.00,200,HR-IXP-WINDi_r2_v1.2,2013-11-04 17:49:00,
2013-11-04 09:54:00,64.5,54.0,29.90,WSW,242,0.0,3.0,69,0.00,,,0.00,204,HR-IXP-WINDi_r2_v1.2,2013-11-04 17:54:00,
2013-11-04 10:02:00,64.5,54.0,29.90,WSW,242,0.0,2.0,69,0.00,,,0.00,199,HR-IXP-WINDi_r2_v1.2,2013-11-04 18:02:00,
2013-11-04 10:08:00,64.7,54.2,29.89,SSW,212,0.0,2.0,69,0.00,,,0.00,216,HR-IXP-WINDi_r2_v1.2,2013-11-04 18:08:00,
2013-11-04 10:13:00,65.2,54.7,29.90,SSW,212,1.0,2.0,69,0.00,,,0.00,206,HR-IXP-WINDi_r2_v1.2,2013-11-04 18:13:00,
2013-11-04 10:19:00,66.1,55.2,29.90,SSW,209,0.0,2.0,68,0.00,,,0.00,172,HR-IXP-WINDi_r2_v1.2,2013-11-04 18:19:00,
2013-11-04 10:24:00,66.1,54.8,29.89,SSW,209,1.0,3.0,67,0.00,,,0.00,186,HR-IXP-WINDi_r2_v1.2,2013-11-04 18:24:00,
2013-11-04 10:29:00,65.5,54.2,29.89,SSW,209,2.0,3.0,67,0.00,,,0.00,178,HR-IXP-WINDi_r2_v1.2,2013-11-04 18:29:00,
2013-11-04 10:34:00,65.5,54.2,29.89,SE,140,2.0,4.0,67,0.00,,,0.00,165,HR-IXP-WINDi_r2_v1.2,2013-11-04 18:34:00,
2013-11-04 10:40:00,65.6,54.3,29.88,SSE,152,2.0,7.0,67,0.00,,,0.00,188,HR-IXP-WINDi_r2_v1.2,2013-11-04 18:40:00,
2013-11-04 10:45:00,65.7,54.8,29.88,SSE,155,1.0,7.0,68,0.00,,,0.00,190,HR-IXP-WINDi_r2_v1.2,2013-11-04 18:45:00,
2013-11-04 10:50:00,65.8,54.9,29.88,SSW,192,3.0,8.0,68,0.00,,,0.00,209,HR-IXP-WINDi_r2_v1.2,2013-11-04 18:50:00,
2013-11-04 10:55:00,65.7,55.2,29.88,South,169,2.0,8.0,69,0.00,,,0.00,221,HR-IXP-WINDi_r2_v1.2,2013-11-04 18:55:00,
2013-11-04 11:00:00,65.8,55.3,29.88,SE,128,3.0,8.0,69,0.00,,,0.00,255,HR-IXP-WINDi_r2_v1.2,2013-11-04 19:00:00,
2013-11-04 11:05:00,66.0,55.5,29.88,SSE,166,1.0,5.0,69,0.00,,,0.00,274,HR-IXP-WINDi_r2_v1.2,2013-11-04 19:05:00,
2013-11-04 11:11:00,66.3,55.8,29.88,ESE,107,4.0,5.0,69,0.00,,,0.00,290,HR-IXP-WINDi_r2_v1.2,2013-11-04 19:11:00,
2013-11-04 11:16:00,66.5,55.6,29.88,SSE,157,1.0,5.0,68,0.00,,,0.00,299,HR-IXP-WINDi_r2_v1.2,2013-11-04 19:16:00,
2013-11-04 11:22:00,66.5,55.6,29.88,SSE,162,4.0,5.0,68,0.00,,,0.00,327,HR-IXP-WINDi_r2_v1.2,2013-11-04 19:22:00,
2013-11-04 11:27:00,66.2,55.3,29.87,South,190,1.0,6.0,68,0.00,,,0.00,334,HR-IXP-WINDi_r2_v1.2,2013-11-04 19:27:00,
2013-11-04 11:32:00,66.2,55.3,29.87,SW,220,3.0,7.0,68,0.00,,,0.00,387,HR-IXP-WINDi_r2_v1.2,2013-11-04 19:32:00,
2013-11-04 11:37:00,67.1,56.9,29.87,SSW,198,4.0,7.0,70,0.00,,,0.00,650,HR-IXP-WINDi_r2_v1.2,2013-11-04 19:37:00,
2013-11-04 11:42:00,67.4,56.0,29.87,SSE,153,2.0,7.0,67,0.00,,,0.00,290,HR-IXP-WINDi_r2_v1.2,2013-11-04 19:42:00,
2013-11-04 11:47:00,67.6,56.6,29.87,SSE,150,3.0,6.0,68,0.00,,,0.00,334,HR-IXP-WINDi_r2_v1.2,2013-11-04 19:47:00,
2013-11-04 11:53:00,67.9,56.5,29.87,South,184,1.0,6.0,67,0.00,,,0.00,327,HR-IXP-WINDi_r2_v1.2,2013-11-04 19:53:00,
2013-11-04 11:58:00,67.4,55.6,29.87,South,188,1.0,6.0,66,0.00,,,0.00,285,HR-IXP-WINDi_r2_v1.2,2013-11-04 19:58:00,
2013-11-04 12:04:00,66.9,55.5,29.86,SSW,202,1.0,4.0,67,0.00,,,0.00,255,HR-IXP-WINDi_r2_v1.2,2013-11-04 20:04:00,
2013-11-04 12:10:00,66.6,55.7,29.86,SSE,165,1.0,6.0,68,0.00,,,0.00,244,HR-IXP-WINDi_r2_v1.2,2013-11-04 20:10:00,
2013-11-04 12:15:00,67.1,56.5,29.86,SSW,204,3.0,6.0,69,0.00,,,0.00,216,HR-IXP-WINDi_r2_v1.2,2013-11-04 20:15:00,
2013-11-04 12:20:00,66.8,56.6,29.86,SE,145,2.0,5.0,70,0.00,,,0.00,183,HR-IXP-WINDi_r2_v1.2,2013-11-04 20:20:00,
2013-11-04 12:26:00,66.4,55.9,29.86,SSW,200,2.0,5.0,69,0.00,,,0.00,209,HR-IXP-WINDi_r2_v1.2,2013-11-04 20:26:00,
2013-11-04 12:31:00,65.8,54.9,29.86,SSW,202,2.0,7.0,68,0.00,,,0.00,200,HR-IXP-WINDi_r2_v1.2,2013-11-04 20:31:00,
2013-11-04 12:36:00,65.6,55.1,29.86,South,180,2.0,7.0,69,0.00,,,0.00,193,HR-IXP-WINDi_r2_v1.2,2013-11-04 20:36:00,
2013-11-04 12:41:00,65.9,55.4,29.86,South,180,0.0,7.0,69,0.00,,,0.00,192,HR-IXP-WINDi_r2_v1.2,2013-11-04 20:41:00,
2013-11-04 12:47:00,66.0,55.5,29.86,SW,215,2.0,7.0,69,0.00,,,0.00,185,HR-IXP-WINDi_r2_v1.2,2013-11-04 20:47:00,
2013-11-04 12:52:00,65.6,55.5,29.86,South,188,3.0,8.0,70,0.00,,,0.00,204,HR-IXP-WINDi_r2_v1.2,2013-11-04 20:52:00,
2013-11-04 12:58:00,65.9,56.2,29.86,South,186,0.0,8.0,71,0.00,,,0.00,267,HR-IXP-WINDi_r2_v1.2,2013-11-04 20:58:00,
2013-11-04 13:03:00,67.2,56.6,29.85,South,184,4.0,8.0,69,0.00,,,0.00,631,HR-IXP-WINDi_r2_v1.2,2013-11-04 21:03:00,
2013-11-04 13:08:00,67.8,57.2,29.86,SE,144,5.0,8.0,69,0.00,,,0.00,636,HR-IXP-WINDi_r2_v1.2,2013-11-04 21:08:00,
2013-11-04 13:14:00,68.5,56.2,29.85,South,174,3.0,8.0,65,0.00,,,0.00,341,HR-IXP-WINDi_r2_v1.2,2013-11-04 21:14:00,
2013-11-04 13:20:00,68.1,56.3,29.86,SW,227,4.0,9.0,66,0.00,,,0.00,330,HR-IXP-WINDi_r2_v1.2,2013-11-04 21:20:00,
2013-11-04 13:25:00,67.1,56.1,29.86,SW,227,3.0,9.0,68,0.00,,,0.00,316,HR-IXP-WINDi_r2_v1.2,2013-11-04 21:25:00,
2013-11-04 13:31:00,66.7,55.7,29.85,SW,223,7.0,7.0,68,0.00,,,0.00,415,HR-IXP-WINDi_r2_v1.2,2013-11-04 21:31:00,
2013-11-04 13:36:00,66.4,55.1,29.85,SW,219,4.0,8.0,67,0.00,,,0.00,329,HR-IXP-WINDi_r2_v1.2,2013-11-04 21:36:00,
2013-11-04 13:42:00,66.1,54.8,29.85,WSW,238,7.0,8.0,67,0.00,,,0.00,255,HR-IXP-WINDi_r2_v1.2,2013-11-04 21:42:00,
2013-11-04 13:47:00,65.7,54.4,29.85,SSW,194,3.0,11.0,67,0.00,,,0.00,260,HR-IXP-WINDi_r2_v1.2,2013-11-04 21:47:00,
2013-11-04 13:52:00,65.9,54.6,29.85,WSW,247,5.0,11.0,67,0.00,,,0.00,260,HR-IXP-WINDi_r2_v1.2,2013-11-04 21:52:00,
2013-11-04 13:58:00,66.1,54.8,29.85,South,182,2.0,7.0,67,0.00,,,0.00,267,HR-IXP-WINDi_r2_v1.2,2013-11-04 21:58:00,
2013-11-04 14:04:00,66.0,54.3,29.85,SSW,204,3.0,7.0,66,0.00,,,0.00,232,HR-IXP-WINDi_r2_v1.2,2013-11-04 22:04:00,
2013-11-04 14:09:00,65.8,54.1,29.85,SW,224,3.0,8.0,66,0.00,,,0.00,218,HR-IXP-WINDi_r2_v1.2,2013-11-04 22:09:00,
2013-11-04 14:15:00,65.6,53.9,29.85,SW,236,6.0,8.0,66,0.00,,,0.00,186,HR-IXP-WINDi_r2_v1.2,2013-11-04 22:15:00,
2013-11-04 14:20:00,65.3,53.6,29.85,WSW,241,5.0,9.0,66,0.00,,,0.00,190,HR-IXP-WINDi_r2_v1.2,2013-11-04 22:20:00,
2013-11-04 14:26:00,65.2,53.9,29.85,South,188,4.0,9.0,67,0.00,,,0.00,181,HR-IXP-WINDi_r2_v1.2,2013-11-04 22:26:00,
2013-11-04 14:31:00,66.1,54.8,29.85,SSE,153,3.0,7.0,67,0.00,,,0.00,364,HR-IXP-WINDi_r2_v1.2,2013-11-04 22:31:00,
2013-11-04 14:36:00,66.1,54.4,29.84,SW,224,8.0,10.0,66,0.00,,,0.00,269,HR-IXP-WINDi_r2_v1.2,2013-11-04 22:36:00,
2013-11-04 14:41:00,65.7,54.0,29.84,SSW,195,4.0,10.0,66,0.00,,,0.00,209,HR-IXP-WINDi_r2_v1.2,2013-11-04 22:41:00,
2013-11-04 14:46:00,65.8,54.1,29.85,SW,215,0.0,10.0,66,0.00,,,0.00,234,HR-IXP-WINDi_r2_v1.2,2013-11-04 22:46:00,
2013-11-04 14:52:00,65.9,54.6,29.85,SW,221,7.0,8.0,67,0.00,,,0.00,216,HR-IXP-WINDi_r2_v1.2,2013-11-04 22:52:00,
2013-11-04 14:57:00,65.9,54.6,29.85,SW,223,3.0,7.0,67,0.00,,,0.00,220,HR-IXP-WINDi_r2_v1.2,2013-11-04 22:57:00,
2013-11-04 15:03:00,66.2,55.7,29.85,South,180,5.0,7.0,69,0.00,,,0.00,236,HR-IXP-WINDi_r2_v1.2,2013-11-04 23:03:00,
2013-11-04 15:08:00,66.1,54.8,29.85,SW,218,4.0,8.0,67,0.00,,,0.00,220,HR-IXP-WINDi_r2_v1.2,2013-11-04 23:08:00,
2013-11-04 15:14:00,65.7,54.8,29.85,WSW,244,5.0,8.0,68,0.00,,,0.00,214,HR-IXP-WINDi_r2_v1.2,2013-11-04 23:14:00,
2013-11-04 15:19:00,65.6,55.1,29.85,South,191,2.0,8.0,69,0.00,,,0.00,227,HR-IXP-WINDi_r2_v1.2,2013-11-04 23:19:00,
2013-11-04 15:24:00,65.7,55.2,29.86,SW,233,4.0,7.0,69,0.00,,,0.00,229,HR-IXP-WINDi_r2_v1.2,2013-11-04 23:24:00,
2013-11-04 15:29:00,65.5,55.0,29.86,West,269,4.0,8.0,69,0.00,,,0.00,186,HR-IXP-WINDi_r2_v1.2,2013-11-04 23:29:00,
2013-11-04 15:34:00,65.4,54.9,29.86,SSW,201,5.0,8.0,69,0.00,,,0.00,193,HR-IXP-WINDi_r2_v1.2,2013-11-04 23:34:00,
2013-11-04 15:40:00,65.4,54.9,29.86,SW,225,2.0,7.0,69,0.00,,,0.00,178,HR-IXP-WINDi_r2_v1.2,2013-11-04 23:40:00,
2013-11-04 15:45:00,65.3,54.8,29.86,SW,214,3.0,7.0,69,0.00,,,0.00,167,HR-IXP-WINDi_r2_v1.2,2013-11-04 23:45:00,
2013-11-04 15:50:00,65.2,54.7,29.86,SW,217,4.0,6.0,69,0.00,,,0.00,160,HR-IXP-WINDi_r2_v1.2,2013-11-04 23:50:00,
2013-11-04 15:55:00,65.3,54.4,29.86,WNW,294,2.0,7.0,68,0.00,,,0.00,130,HR-IXP-WINDi_r2_v1.2,2013-11-04 23:55:00,
2013-11-04 16:00:00,65.2,54.7,29.86,SSW,192,3.0,7.0,69,0.00,,,0.00,109,HR-IXP-WINDi_r2_v1.2,2013-11-05 00:00:00,
2013-11-04 16:06:00,64.9,54.4,29.86,SW,227,3.0,7.0,69,0.00,,,0.00,95,HR-IXP-WINDi_r2_v1.2,2013-11-05 00:06:00,
2013-11-04 16:11:00,64.6,54.1,29.86,SW,235,2.0,7.0,69,0.00,,,0.00,83,HR-IXP-WINDi_r2_v1.2,2013-11-05 00:11:00,
2013-11-04 16:16:00,64.4,53.9,29.86,SW,223,3.0,6.0,69,0.00,,,0.00,65,HR-IXP-WINDi_r2_v1.2,2013-11-05 00:16:00,
2013-11-04 16:21:00,64.0,53.6,29.86,SSW,212,3.0,6.0,69,0.00,,,0.00,46,HR-IXP-WINDi_r2_v1.2,2013-11-05 00:21:00,
2013-11-04 16:26:00,63.7,53.7,29.86,WSW,248,3.0,6.0,70,0.00,,,0.00,33,HR-IXP-WINDi_r2_v1.2,2013-11-05 00:26:00,
2013-11-04 16:32:00,63.4,53.4,29.87,SW,215,2.0,8.0,70,0.00,,,0.00,28,HR-IXP-WINDi_r2_v1.2,2013-11-05 00:32:00,
2013-11-04 16:37:00,63.1,53.1,29.87,SW,227,0.0,8.0,70,0.00,,,0.00,21,HR-IXP-WINDi_r2_v1.2,2013-11-05 00:37:00,
2013-11-04 16:43:00,62.8,53.2,29.87,SW,227,3.0,6.0,71,0.00,,,0.00,16,HR-IXP-WINDi_r2_v1.2,2013-11-05 00:43:00,
2013-11-04 16:48:00,62.7,53.1,29.87,SW,223,2.0,5.0,71,0.00,,,0.00,11,HR-IXP-WINDi_r2_v1.2,2013-11-05 00:48:00,
2013-11-04 16:53:00,62.5,52.9,29.87,SSW,202,3.0,4.0,71,0.00,,,0.00,7,HR-IXP-WINDi_r2_v1.2,2013-11-05 00:53:00,
2013-11-04 16:59:00,62.3,53.1,29.87,SSW,198,0.0,4.0,72,0.00,,,0.00,0,HR-IXP-WINDi_r2_v1.2,2013-11-05 00:59:00,
2013-11-04 17:04:00,62.2,53.4,29.87,SW,215,0.0,4.0,73,0.00,,,0.00,0,HR-IXP-WINDi_r2_v1.2,2013-11-05 01:04:00,
2013-11-04 17:10:00,62.0,53.2,29.87,SSW,210,1.0,3.0,73,0.00,,,0.00,0,HR-IXP-WINDi_r2_v1.2,2013-11-05 01:10:00,
2013-11-04 17:15:00,61.9,53.5,29.87,SW,221,1.0,3.0,74,0.00,,,0.00,0,HR-IXP-WINDi_r2_v1.2,2013-11-05 01:15:00,
2013-11-04 17:20:00,61.7,53.3,29.87,SW,221,1.0,3.0,74,0.00,,,0.00,0,HR-IXP-WINDi_r2_v1.2,2013-11-05 01:20:00,
2013-11-04 17:26:00,61.6,53.2,29.88,SW,219,2.0,3.0,74,0.00,,,0.00,0,HR-IXP-WINDi_r2_v1.2,2013-11-05 01:26:00,
2013-11-04 17:31:00,61.6,53.5,29.88,SW,221,1.0,4.0,75,0.00,,,0.00,0,HR-IXP-WINDi_r2_v1.2,2013-11-05 01:31:00,
2013-11-04 17:36:00,61.5,53.4,29.88,WSW,238,2.0,4.0,75,0.00,,,0.00,0,HR-IXP-WINDi_r2_v1.2,2013-11-05 01:36:00,
2013-11-04 17:41:00,61.5,53.4,29.88,SW,236,1.0,4.0,75,0.00,,,0.00,0,HR-IXP-WINDi_r2_v1.2,2013-11-05 01:41:00,
2013-11-04 17:47:00,61.4,53.7,29.89,SW,236,1.0,3.0,76,0.00,,,0.00,0,HR-IXP-WINDi_r2_v1.2,2013-11-05 01:47:00,
2013-11-04 17:52:00,61.4,53.7,29.89,SW,236,1.0,3.0,76,0.00,,,0.00,0,HR-IXP-WINDi_r2_v1.2,2013-11-05 01:52:00,
2013-11-04 17:58:00,61.3,53.6,29.89,SW,236,0.0,3.0,76,0.00,,,0.00,0,HR-IXP-WINDi_r2_v1.2,2013-11-05 01:58:00,
2013-11-04 18:03:00,61.1,53.8,29.89,SW,236,0.0,3.0,77,0.00,,,0.00,0,HR-IXP-WINDi_r2_v1.2,2013-11-05 02:03:00,
2013-11-04 18:08:00,61.1,53.8,29.90,SW,236,0.0,2.0,77,0.00,,,0.00,0,HR-IXP-WINDi_r2_v1.2,2013-11-05 02:08:00,
2013-11-04 18:14:00,60.9,53.6,29.90,SW,236,0.0,2.0,77,0.00,,,0.00,0,HR-IXP-WINDi_r2_v1.2,2013-11-05 02:14:00,
2013-11-04 18:19:00,60.8,53.8,29.89,SW,236,0.0,3.0,78,0.00,,,0.00,0,HR-IXP-WINDi_r2_v1.2,2013-11-05 02:19:00,
2013-11-04 18:24:00,60.8,53.8,29.90,SW,236,0.0,3.0,78,0.00,,,0.00,0,HR-IXP-WINDi_r2_v1.2,2013-11-05 02:24:00,
2013-11-04 18:30:00,60.7,53.7,29.90,SW,236,0.0,3.0,78,0.00,,,0.00,0,HR-IXP-WINDi_r2_v1.2,2013-11-05 02:30:00,
2013-11-04 18:35:00,60.6,53.6,29.90,SW,236,0.0,1.0,78,0.00,,,0.00,0,HR-IXP-WINDi_r2_v1.2,2013-11-05 02:35:00,
2013-11-04 18:40:00,60.6,53.6,29.90,SW,236,0.0,1.0,78,0.00,,,0.00,0,HR-IXP-WINDi_r2_v1.2,2013-11-05 02:40:00,
2013-11-04 18:45:00,60.5,53.5,29.90,SW,236,0.0,2.0,78,0.00,,,0.00,0,HR-IXP-WINDi_r2_v1.2,2013-11-05 02:45:00,
2013-11-04 18:51:00,60.5,53.5,29.90,SW,236,0.0,2.0,78,0.00,,,0.00,0,HR-IXP-WINDi_r2_v1.2,2013-11-05 02:51:00,
2013-11-04 18:56:00,60.4,53.4,29.90,SW,236,0.0,0.0,78,0.00,,,0.00,0,HR-IXP-WINDi_r2_v1.2,2013-11-05 02:56:00,
2013-11-04 19:02:00,60.4,53.4,29.90,SW,236,0.0,0.0,78,0.00,,,0.00,0,HR-IXP-WINDi_r2_v1.2,2013-11-05 03:02:00,
2013-11-04 19:07:00,60.3,53.3,29.90,SW,236,0.0,0.0,78,0.00,,,0.00,0,HR-IXP-WINDi_r2_v1.2,2013-11-05 03:07:00,
2013-11-04 19:12:00,60.3,53.3,29.90,SW,236,0.0,0.0,78,0.00,,,0.00,0,HR-IXP-WINDi_r2_v1.2,2013-11-05 03:12:00,
2013-11-04 19:17:00,60.2,53.3,29.90,SW,236,0.0,0.0,78,0.00,,,0.00,0,HR-IXP-WINDi_r2_v1.2,2013-11-05 03:17:00,
2013-11-04 19:23:00,60.2,53.3,29.90,SW,236,0.0,1.0,78,0.00,,,0.00,0,HR-IXP-WINDi_r2_v1.2,2013-11-05 03:23:00,
2013-11-04 19:28:00,60.1,53.2,29.91,SW,236,0.0,1.0,78,0.00,,,0.00,0,HR-IXP-WINDi_r2_v1.2,2013-11-05 03:28:00,
2013-11-04 19:33:00,60.0,53.1,29.91,SW,236,0.0,0.0,78,0.00,,,0.00,0,HR-IXP-WINDi_r2_v1.2,2013-11-05 03:33:00,
2013-11-04 19:38:00,59.9,53.0,29.91,SW,236,0.0,0.0,78,0.00,,,0.00,0,HR-IXP-WINDi_r2_v1.2,2013-11-05 03:38:00,
2013-11-04 19:43:00,59.7,53.1,29.91,SW,236,0.0,1.0,79,0.00,,,0.00,0,HR-IXP-WINDi_r2_v1.2,2013-11-05 03:43:00,
2013-11-04 19:48:00,59.6,53.0,29.92,SW,236,0.0,1.0,79,0.00,,,0.00,0,HR-IXP-WINDi_r2_v1.2,2013-11-05 03:48:00,
2013-11-04 19:54:00,59.5,52.9,29.92,SW,236,0.0,1.0,79,0.00,,,0.00,0,HR-IXP-WINDi_r2_v1.2,2013-11-05 03:54:00,
2013-11-04 19:59:00,59.4,52.8,29.92,SW,236,0.0,0.0,79,0.00,,,0.00,0,HR-IXP-WINDi_r2_v1.2,2013-11-05 03:59:00,
2013-11-04 20:04:00,59.3,52.7,29.92,SW,236,0.0,0.0,79,0.00,,,0.00,0,HR-IXP-WINDi_r2_v1.2,2013-11-05 04:04:00,
2013-11-04 20:09:00,59.1,52.5,29.92,SW,236,0.0,0.0,79,0.00,,,0.00,0,HR-IXP-WINDi_r2_v1.2,2013-11-05 04:09:00,
2013-11-04 20:15:00,59.1,52.5,29.92,SW,236,0.0,0.0,79,0.00,,,0.00,0,HR-IXP-WINDi_r2_v1.2,2013-11-05 04:15:00,
2013-11-04 20:20:00,59.0,52.8,29.92,SW,236,0.0,0.0,80,0.00,,,0.00,0,HR-IXP-WINDi_r2_v1.2,2013-11-05 04:20:00,
2013-11-04 20:25:00,58.9,52.7,29.93,SW,236,0.0,0.0,80,0.00,,,0.00,0,HR-IXP-WINDi_r2_v1.2,2013-11-05 04:25:00,
2013-11-04 20:31:00,58.8,52.6,29.93,SW,236,0.0,0.0,80,0.00,,,0.00,0,HR-IXP-WINDi_r2_v1.2,2013-11-05 04:31:00,
2013-11-04 20:36:00,58.7,52.5,29.93,SW,236,0.0,0.0,80,0.00,,,0.00,0,HR-IXP-WINDi_r2_v1.2,2013-11-05 04:36:00,
2013-11-04 20:41:00,58.6,52.4,29.93,SW,236,0.0,0.0,80,0.00,,,0.00,0,HR-IXP-WINDi_r2_v1.2,2013-11-05 04:41:00,
2013-11-04 20:46:00,58.5,52.3,29.93,SW,236,0.0,0.0,80,0.00,,,0.00,0,HR-IXP-WINDi_r2_v1.2,2013-11-05 04:46:00,
2013-11-04 20:52:00,58.4,52.5,29.94,SW,236,0.0,0.0,81,0.00,,,0.00,0,HR-IXP-WINDi_r2_v1.2,2013-11-05 04:52:00,
2013-11-04 20:57:00,58.2,52.3,29.94,SW,236,0.0,0.0,81,0.00,,,0.00,0,HR-IXP-WINDi_r2_v1.2,2013-11-05 04:57:00,
2013-11-04 21:01:00,58.2,52.3,29.95,SW,236,0.0,0.0,81,0.00,,,0.00,0,HR-IXP-WINDi_r2_v1.2,2013-11-05 05:01:00,
2013-11-04 21:06:00,58.1,52.2,29.94,SW,236,0.0,0.0,81,0.00,,,0.00,0,HR-IXP-WINDi_r2_v1.2,2013-11-05 05:06:00,
2013-11-04 21:11:00,58.0,52.1,29.95,SW,236,0.0,0.0,81,0.00,,,0.00,0,HR-IXP-WINDi_r2_v1.2,2013-11-05 05:11:00,
2013-11-04 21:16:00,57.9,52.4,29.94,SW,236,0.0,0.0,82,0.00,,,0.00,0,HR-IXP-WINDi_r2_v1.2,2013-11-05 05:16:00,
2013-11-04 21:22:00,57.8,52.3,29.94,SW,236,0.0,0.0,82,0.00,,,0.00,0,HR-IXP-WINDi_r2_v1.2,2013-11-05 05:22:00,
2013-11-04 21:27:00,57.7,52.2,29.95,SW,236,0.0,0.0,82,0.00,,,0.00,0,HR-IXP-WINDi_r2_v1.2,2013-11-05 05:27:00,
2013-11-04 21:33:00,57.5,52.0,29.95,SW,236,0.0,0.0,82,0.00,,,0.00,0,HR-IXP-WINDi_r2_v1.2,2013-11-05 05:33:00,
2013-11-04 21:38:00,57.3,52.1,29.95,SW,236,0.0,1.0,83,0.00,,,0.00,0,HR-IXP-WINDi_r2_v1.2,2013-11-05 05:38:00,
2013-11-04 21:43:00,57.2,52.0,29.95,SW,236,1.0,1.0,83,0.00,,,0.00,0,HR-IXP-WINDi_r2_v1.2,2013-11-05 05:43:00,
2013-11-04 21:49:00,57.1,51.9,29.95,SW,236,0.0,1.0,83,0.00,,,0.00,0,HR-IXP-WINDi_r2_v1.2,2013-11-05 05:49:00,
2013-11-04 21:54:00,57.1,51.9,29.95,SW,236,0.0,1.0,83,0.00,,,0.00,0,HR-IXP-WINDi_r2_v1.2,2013-11-05 05:54:00,
2013-11-04 21:59:00,57.0,51.8,29.95,SW,236,0.0,0.0,83,0.00,,,0.00,0,HR-IXP-WINDi_r2_v1.2,2013-11-05 05:59:00,
2013-11-04 22:05:00,57.0,51.8,29.95,SW,236,0.0,0.0,83,0.00,,,0.00,0,HR-IXP-WINDi_r2_v1.2,2013-11-05 06:05:00,
2013-11-04 22:10:00,56.9,52.1,29.95,SW,236,0.0,0.0,84,0.00,,,0.00,0,HR-IXP-WINDi_r2_v1.2,2013-11-05 06:10:00,
2013-11-04 22:15:00,56.8,52.0,29.95,SW,236,0.0,0.0,84,0.00,,,0.00,0,HR-IXP-WINDi_r2_v1.2,2013-11-05 06:15:00,
2013-11-04 22:21:00,56.7,51.9,29.95,SW,236,0.0,0.0,84,0.00,,,0.00,0,HR-IXP-WINDi_r2_v1.2,2013-11-05 06:21:00,
2013-11-04 22:26:00,56.6,51.8,29.95,SW,236,0.0,0.0,84,0.00,,,0.00,0,HR-IXP-WINDi_r2_v1.2,2013-11-05 06:26:00,
2013-11-04 22:31:00,56.5,51.7,29.95,SW,236,0.0,0.0,84,0.00,,,0.00,0,HR-IXP-WINDi_r2_v1.2,2013-11-05 06:31:00,
2013-11-04 22:37:00,56.3,51.5,29.96,SW,236,0.0,0.0,84,0.00,,,0.00,0,HR-IXP-WINDi_r2_v1.2,2013-11-05 06:37:00,
2013-11-04 22:42:00,56.3,51.8,29.96,SW,236,0.0,0.0,85,0.00,,,0.00,0,HR-IXP-WINDi_r2_v1.2,2013-11-05 06:42:00,
2013-11-04 22:48:00,56.2,51.7,29.96,SW,236,0.0,1.0,85,0.00,,,0.00,0,HR-IXP-WINDi_r2_v1.2,2013-11-05 06:48:00,
2013-11-04 22:53:00,56.2,51.7,29.96,SW,236,0.0,1.0,85,0.00,,,0.00,0,HR-IXP-WINDi_r2_v1.2,2013-11-05 06:53:00,
2013-11-04 22:58:00,56.1,51.6,29.96,SW,236,0.0,1.0,85,0.00,,,0.00,0,HR-IXP-WINDi_r2_v1.2,2013-11-05 06:58:00,
2013-11-04 23:04:00,56.1,51.9,29.96,SW,236,0.0,1.0,86,0.00,,,0.00,0,HR-IXP-WINDi_r2_v1.2,2013-11-05 07:04:00,
2013-11-04 23:09:00,56.0,51.8,29.96,SW,236,1.0,1.0,86,0.00,,,0.00,0,HR-IXP-WINDi_r2_v1.2,2013-11-05 07:09:00,
2013-11-04 23:14:00,56.0,51.8,29.96,SW,236,0.0,1.0,86,0.00,,,0.00,0,HR-IXP-WINDi_r2_v1.2,2013-11-05 07:14:00,
2013-11-04 23:20:00,55.9,51.7,29.96,SW,236,0.0,1.0,86,0.00,,,0.00,0,HR-IXP-WINDi_r2_v1.2,2013-11-05 07:20:00,
2013-11-04 23:25:00,55.8,51.6,29.96,SW,236,0.0,1.0,86,0.00,,,0.00,0,HR-IXP-WINDi_r2_v1.2,2013-11-05 07:25:00,
2013-11-04 23:30:00,55.8,51.6,29.96,SW,236,0.0,1.0,86,0.00,,,0.00,0,HR-IXP-WINDi_r2_v1.2,2013-11-05 07:30:00,
2013-11-04 23:36:00,55.6,51.4,29.96,SW,236,0.0,0.0,86,0.00,,,0.00,0,HR-IXP-WINDi_r2_v1.2,2013-11-05 07:36:00,
2013-11-04 23:41:00,55.4,51.2,29.96,SW,236,0.0,1.0,86,0.00,,,0.00,0,HR-IXP-WINDi_r2_v1.2,2013-11-05 07:41:00,
2013-11-04 23:47:00,55.2,51.0,29.96,SW,236,0.0,1.0,86,0.00,,,0.00,0,HR-IXP-WINDi_r2_v1.2,2013-11-05 07:47:00,
2013-11-04 23:52:00,55.1,50.9,29.96,SW,236,0.0,1.0,86,0.00,,,0.00,0,HR-IXP-WINDi_r2_v1.2,2013-11-05 07:52:00,
2013-11-04 23:57:00,55.0,50.8,29.97,SW,236,0.0,1.0,86,0.00,,,0.00,0,HR-IXP-WINDi_r2_v1.2,2013-11-05 07:57:00,